Lid_Strength_Index
-1 -1 -0 1 2 4 4 4 3 2 2 1 0 0 -0 0 1 2 7 4 4 11 14 12 13 15 15 15 17 17 17 18 24 25 26 28 30 29 29 25 24 25 25 29 29 29 28 18 16 17 16 15 16 17
-1 -1 -1 -1 -0 2 3 4 3 3 2 1 0 0 -0 0 1 1 8 8 9 11 14 14 14 14 14 13 15 16 16 19 18 24 27 29 31 31 30 28 21 25 21 23 22 22 17 17 15 14 14 15 16 17
-1 -1 -1 -1 -0 1 1 3 3 3 2 1 0 0 -0 -0 0 2 7 9 11 14 15 14 15 14 13 14 13 16 17 16 18 19 24 27 27 25 29 28 25 22 20 21 20 18 17 16 15 15 15 15 15 15
-1 -1 -1 -1 -0 -0 0 1 3 4 3 1 0 0 -0 0 0 1 7 6 8 12 15 17 13 15 13 13 14 15 16 17 18 20 26 28 27 22 24 23 23 22 20 22 21 18 17 16 16 15 15 16 15 14
-1 -1 -1 -1 -1 -0 1 1 3 4 3 1 0 -0 -0 0 0 4 6 5 7 8 17 18 15 15 13 14 15 15 16 17 18 22 27 25 24 23 24 24 25 21 21 20 20 18 18 18 17 17 16 16 16 15
-1 -1 -1 -1 1 1 1 2 2 3 2 0 1 1 0 1 3 5 10 8 9 10 15 19 16 16 15 15 16 17 17 20 20 22 27 25 21 22 29 31 21 20 19 18 18 20 18 18 18 19 18 18 18 17
-1 -1 -1 -0 0 1 1 2 3 3 2 1 1 1 1 2 3 7 9 8 8 10 16 20 20 17 16 16 17 18 19 22 20 25 28 25 24 24 27 28 19 20 18 19 20 18 19 18 18 17 18 19 21 22
-1 -1 0 1 1 1 2 3 4 2 2 1 1 1 0 2 2 8 7 5 8 13 15 20 22 19 16 18 19 18 19 20 25 26 26 27 26 26 26 20 24 24 25 23 20 20 20 22 22 23 23 23 23 22
-1 0 1 2 2 1 2 3 2 2 2 2 1 2 1 8 10 9 5 7 9 12 18 20 22 23 17 19 19 19 18 20 23 27 28 27 30 27 20 20 23 22 20 21 23 26 27 24 22 25 25 26 22 24
-0 1 2 3 2 2 1 2 2 2 2 2 3 8 11 10 4 6 9 11 12 15 17 21 20 22 19 20 22 21 23 24 26 26 25 27 26 21 18 18 22 23 20 24 25 26 28 25 24 25 23 21 21 20
-1 2 2 2 2 1 1 2 2 2 3 8 10 12 9 5 10 11 12 12 14 17 19 21 20 22 19 21 22 21 24 27 27 29 29 32 29 24 23 19 16 21 21 21 25 24 17 19 19 22 25 24 23 24
0 2 2 2 2 2 1 2 2 4 8 8 9 8 10 10 11 13 14 14 14 18 23 21 21 19 21 20 22 24 26 28 29 33 31 29 23 22 25 26 28 23 21 21 24 23 23 21 19 19 20 22 23 25
0 2 2 2 1 2 3 3 3 5 4 7 9 11 11 11 15 16 18 18 23 23 22 21 22 22 22 22 27 26 27 29 32 29 28 24 22 24 25 32 31 34 26 26 28 31 32 30 33 23 22 28 23 25
0 1 1 1 2 3 4 5 4 5 8 10 12 16 13 16 15 18 18 18 21 21 19 20 24 21 23 24 26 29 36 32 34 32 26 20 21 22 27 32 31 27 26 23 23 26 27 27 27 33 31 27 25 24
-0 1 1 2 3 4 4 4 3 5 8 10 11 15 15 21 25 28 27 23 21 16 20 22 22 22 25 27 30 33 33 31 28 25 22 21 22 26 29 32 29 28 25 23 25 23 26 28 28 27 33 34 30 27
-0 1 3 3 4 3 4 4 4 7 9 12 14 17 20 19 19 21 21 18 15 16 17 16 21 19 24 26 30 28 26 26 21 23 20 24 24 26 27 31 27 29 28 25 25 26 26 27 28 27 36 35 31 26
2 6 3 3 3 4 4 7 8 9 10 15 16 18 20 17 17 19 19 17 13 15 17 17 20 21 27 29 28 27 24 20 21 22 25 26 24 25 25 31 30 27 28 27 27 27 26 31 33 32 28 31 34 32
5 6 3 5 6 6 8 9 11 13 18 17 19 22 21 21 18 18 18 14 16 20 18 16 22 23 23 21 23 21 22 23 23 22 23 25 27 29 32 30 32 29 27 28 30 30 30 29 27 25 29 29 32 34
6 5 5 6 6 8 10 11 13 20 19 17 20 21 20 19 18 16 14 20 20 19 19 23 24 25 22 22 21 22 24 23 20 23 25 28 30 30 31 33 34 29 27 28 28 25 26 27 26 26 27 27 24 28
4 5 5 4 5 11 13 13 13 15 17 19 19 18 17 18 21 20 22 23 22 21 20 22 21 21 20 21 21 21 22 25 24 22 23 28 31 33 31 28 27 31 31 33 34 30 31 31 33 30 27 25 25 26
4 5 5 7 13 15 17 19 17 17 16 18 22 18 17 21 22 22 20 25 19 23 21 24 24 24 27 27 28 26 25 25 24 23 22 23 30 30 29 33 33 32 32 29 27 30 27 23 28 29 27 26 28 28
6 3 9 9 15 16 16 14 16 16 18 20 23 24 21 21 24 22 25 19 23 20 23 24 23 24 25 24 26 27 28 28 28 28 27 27 23 25 29 33 32 30 31 27 24 24 25 30 30 29 28 30 31 32
4 7 14 15 15 14 16 14 17 16 15 21 25 21 20 22 23 24 21 23 21 25 27 25 25 26 23 28 29 30 30 28 27 26 25 24 26 29 33 34 32 30 30 30 32 30 29 30 30 29 32 33 32 33
7 13 16 18 18 17 17 18 16 17 19 23 24 21 20 22 26 25 22 26 22 26 25 24 22 23 23 21 22 26 29 30 28 24 27 27 25 29 34 33 32 33 30 30 28 29 30 30 30 30 31 32 33 30
13 14 16 21 21 15 22 23 22 18 23 27 22 21 22 28 26 26 23 22 25 30 31 29 26 27 24 25 26 28 31 29 28 26 24 26 28 28 28 31 33 33 31 28 29 29 31 31 29 30 32 31 29 30
18 19 19 22 20 17 22 22 26 25 29 28 24 28 30 28 24 20 23 29 32 34 36 35 35 30 27 31 28 27 27 30 31 28 26 28 27 25 26 26 27 26 29 28 28 28 30 30 29 29 30 29 28 28
22 23 25 22 24 24 24 26 26 25 24 24 25 27 27 22 21 25 35 34 36 38 37 36 37 35 31 30 30 31 28 31 29 27 28 30 30 29 27 26 26 24 27 26 26 27 27 28 28 28 29 31 30 28
30 31 22 23 25 27 24 24 22 16 18 28 25 24 20 19 21 34 35 35 37 36 35 35 35 34 34 32 31 30 28 28 29 29 28 28 30 29 29 29 29 23 29 26 26 26 26 25 27 28 28 28 29 30
31 31 26 23 23 26 28 25 24 29 31 31 24 24 32 36 36 38 36 35 35 39 36 34 32 32 32 32 33 32 31 28 25 24 25 26 26 25 27 27 27 27 24 23 21 25 25 25 25 25 25 26 25 24
29 28 22 22 22 23 29 32 34 34 34 35 35 33 36 36 36 34 36 37 37 38 38 38 36 36 33 32 30 28 27 28 27 28 26 27 28 29 29 27 24 23 22 22 23 23 21 23 23 24 24 24 25 26
28 26 23 23 27 25 30 33 36 36 38 37 37 34 35 34 35 36 37 38 39 38 37 36 33 33 32 32 33 31 28 26 26 24 25 25 26 27 25 25 23 22 22 23 23 24 24 25 26 27 28 28 28 28
26 25 25 21 23 26 30 30 31 34 36 34 36 34 35 35 34 34 33 36 35 35 35 37 36 35 35 35 33 32 28 27 25 23 23 24 24 23 22 21 21 22 23 23 24 25 26 27 28 28 29 29 29 29
25 26 26 24 23 24 25 28 31 32 32 34 35 40 40 36 31 35 35 36 36 36 36 36 36 36 34 33 31 29 27 23 21 20 20 21 21 22 22 23 23 24 25 26 26 27 27 28 28 29 29 29 29 29